Weather History for KJAN - September, 2014

Change the Weather History Date:

Saturday, September 13, 2014

  Actual Average Record
Temperature  
Mean Temperature 70 °F 77 °F  
Max Temperature 73 °F 88 °F 101 °F (1921)
Min Temperature 67 °F 66 °F 45 °F (1940)
Degree Days  
Heating Degree Days 0 0  
Month to date heating degree days 0 0  
Since 1 July heating degree days 0 0  
Cooling Degree Days 5 12  
Month to date cooling degree days 211 174  
Year to date cooling degree days 1941 1973  
Growing Degree Days 19 (Base 50)    
Moisture  
Dew Point 65 °F    
Average Humidity 89    
Maximum Humidity 100    
Minimum Humidity 78    
Precipitation  
Precipitation 0.00 in 0.09 in 1.86 in (2007)
Month to date precipitation 1.54 1.30  
Year to date precipitation 45.22 38.58  
Sea Level Pressure  
Sea Level Pressure 30.12 in    
Wind  
Wind Speed 11 mph (NNE)    
Max Wind Speed 17 mph    
Max Gust Speed 22 mph    
Visibility 9 miles    
Events      
T = Trace of Precipitation, MM = Missing Value Source: NWS Daily Summary

Daily Weather History Graph

Daily Weather History Graph

Search for Another Location

Airport or City:

Trip Planner

Search our weather history database for the weather conditions in past years. The results will help you decide how hot, cold, wet, or windy it might be!

Date:

Astronomy

Sep. 13, 2014 Rise Set
Actual Time 6:42 AM CDT 7:08 PM CDT
Civil Twilight 6:18 AM CDT 7:33 PM CDT
Nautical Twilight 5:49 AM CDT 8:02 PM CDT
Astronomical Twilight 5:20 AM CDT 8:31 PM CDT
Moon 10:32 PM CDT (9/13) 11:32 AM CDT (9/13)
Length of Visible Light 13h 15m
Length of Day
12h 26m
Waning Gibbous, 74% of the Moon is Illuminated
Sep 13
Waning Gibbous
Sep 15
Last Quarter
Sep 24
New
Oct 1
First Quarter
Oct 8
Full

Hourly Weather History & Observations

Time (CDT) Temp. Dew Point Humidity Pressure Visibility Wind Dir Wind Speed Gust Speed Precip Events Conditions
12:54 AM 72.0 °F 71.1 °F 97% 30.08 in 2.5 mi North 6.9 mph - N/A   Overcast
1:03 AM 72.0 °F 71.1 °F 97% 30.08 in 3.0 mi North 5.8 mph - N/A   Overcast
1:54 AM 73.0 °F 71.1 °F 93% 30.05 in 4.0 mi NNE 8.1 mph - N/A   Overcast
2:54 AM 72.0 °F 71.1 °F 97% 30.02 in 5.0 mi North 11.5 mph - N/A   Overcast
3:54 AM 70.0 °F 69.1 °F 97% 30.04 in 4.0 mi North 16.1 mph - N/A   Overcast
4:54 AM 69.1 °F 68.0 °F 96% 30.05 in 9.0 mi North 15.0 mph - N/A   Overcast
5:12 AM 69.1 °F 66.9 °F 93% 30.07 in 10.0 mi North 12.7 mph - N/A   Overcast
5:54 AM 69.1 °F 66.9 °F 93% 30.07 in 10.0 mi NNE 15.0 mph - N/A   Overcast
6:54 AM 68.0 °F 66.0 °F 93% 30.09 in 10.0 mi North 11.5 mph - N/A   Overcast
7:54 AM 66.9 °F 64.9 °F 93% 30.11 in 7.0 mi North 12.7 mph - N/A   Overcast
8:54 AM 66.9 °F 64.9 °F 93% 30.13 in 8.0 mi North 10.4 mph - N/A   Overcast
9:54 AM 66.9 °F 64.9 °F 93% 30.15 in 9.0 mi North 11.5 mph - N/A   Overcast
10:54 AM 66.9 °F 64.0 °F 90% 30.17 in 8.0 mi North 10.4 mph - N/A   Overcast
11:54 AM 68.0 °F 64.0 °F 87% 30.17 in 10.0 mi NE 9.2 mph - N/A   Overcast
12:28 PM 70.0 °F 64.0 °F 81% 30.17 in 10.0 mi NNE 8.1 mph - N/A   Overcast
12:54 PM 70.0 °F 64.0 °F 81% 30.16 in 10.0 mi NE 6.9 mph - N/A   Overcast
1:54 PM 71.1 °F 64.0 °F 78% 30.15 in 10.0 mi NNE 9.2 mph - N/A   Overcast
2:54 PM 71.1 °F 64.0 °F 78% 30.14 in 10.0 mi North 11.5 mph - N/A   Overcast
3:54 PM 72.0 °F 64.0 °F 76% 30.12 in 10.0 mi North 9.2 mph - N/A   Overcast
4:09 PM 72.0 °F 64.0 °F 76% 30.13 in 10.0 mi North 8.1 mph - N/A   Overcast
4:54 PM 71.1 °F 64.0 °F 78% 30.11 in 10.0 mi North 8.1 mph - N/A   Overcast
5:54 PM 70.0 °F 64.0 °F 81% 30.11 in 10.0 mi North 10.4 mph - N/A   Overcast
6:54 PM 70.0 °F 63.0 °F 78% 30.12 in 10.0 mi North 10.4 mph - N/A   Overcast
7:54 PM 70.0 °F 63.0 °F 78% 30.14 in 10.0 mi NNE 10.4 mph - N/A   Overcast
8:54 PM 69.1 °F 62.1 °F 78% 30.16 in 10.0 mi NE 11.5 mph 18.4 mph N/A   Overcast
9:18 PM 69.1 °F 63.0 °F 81% 30.17 in 10.0 mi NNE 9.2 mph - N/A   Overcast
9:54 PM 68.0 °F 62.1 °F 81% 30.17 in 10.0 mi NE 12.7 mph 18.4 mph N/A   Overcast
10:22 PM 68.0 °F 62.1 °F 81% 30.18 in 10.0 mi NNE 11.5 mph - N/A   Overcast
10:54 PM 68.0 °F 62.1 °F 81% 30.18 in 10.0 mi ENE 5.8 mph - N/A   Overcast
11:03 PM 68.0 °F 62.1 °F 81% 30.18 in 10.0 mi NE 5.8 mph - N/A   Overcast
11:54 PM 66.9 °F 62.1 °F 84% 30.17 in 10.0 mi NNE 9.2 mph - N/A   Overcast